![]() |
EMODnet Physics ERDDAP
Easier access to scientific data |
log in|
Brought to you by EMODnet Physics |
| Dataset Title: | NDBC - Collection of dew point temperature (DEWT) TimeSeries - IN SITU MultiPointTimeSeriesObservation
|
| Institution: | NDBC (Dataset ID: TS_DEWT_NDBC) |
| Information: | Summary
| License
| FGDC
| ISO 19115
| Metadata
| Background
| Subset
| Data Access Form
| Make a graph
|
| Name | Last modified | Size | Description | |
|---|---|---|---|---|
| Parent Directory | - | - | ||
| 46084_TS_DEWT_012003.nc | 20-Nov-2024 10:51 | 1831113 | ||
| 46084_TS_DEWT_012004.nc | 20-Nov-2024 11:31 | 1831515 | ||
| 46084_TS_DEWT_012005.nc | 20-Nov-2024 12:23 | 1674987 | ||
| 46084_TS_DEWT_012006.nc | 20-Nov-2024 13:13 | 1634790 | ||
| 46084_TS_DEWT_012007.nc | 20-Nov-2024 14:06 | 1678708 | ||
| 46084_TS_DEWT_012008.nc | 20-Nov-2024 14:54 | 1677044 | ||
| 46084_TS_DEWT_012010.nc | 20-Nov-2024 15:42 | 1314516 | ||
| 46084_TS_DEWT_012012.nc | 20-Nov-2024 17:14 | 1797230 | ||
| 46084_TS_DEWT_012014.nc | 20-Nov-2024 18:03 | 1828780 | ||
| 46084_TS_DEWT_012015.nc | 20-Nov-2024 18:52 | 1831067 | ||
| 46084_TS_DEWT_012016.nc | 20-Nov-2024 19:37 | 1784113 | ||
| 46084_TS_DEWT_012017.nc | 20-Nov-2024 20:18 | 1829839 | ||
| 46084_TS_DEWT_012019.nc | 20-Nov-2024 21:07 | 1303366 | ||
| 46084_TS_DEWT_012020.nc | 20-Nov-2024 22:00 | 1833423 | ||
| 46084_TS_DEWT_012021.nc | 20-Nov-2024 22:56 | 1674619 | ||
| 46084_TS_DEWT_012022.nc | 20-Nov-2024 23:42 | 3559811 | ||
| 46084_TS_DEWT_012023.nc | 21-Nov-2024 00:36 | 1680798 | ||
| 46084_TS_DEWT_012025.nc | 07-Feb-2025 11:26 | 1296519 | ||
| 46084_TS_DEWT_022003.nc | 20-Nov-2024 10:55 | 1673859 | ||
| 46084_TS_DEWT_022004.nc | 20-Nov-2024 11:35 | 4948653 | ||
| 46084_TS_DEWT_022005.nc | 20-Nov-2024 12:28 | 1835443 | ||
| 46084_TS_DEWT_022006.nc | 20-Nov-2024 13:17 | 1293573 | ||
| 46084_TS_DEWT_022007.nc | 20-Nov-2024 14:11 | 1822850 | ||
| 46084_TS_DEWT_022008.nc | 20-Nov-2024 14:57 | 5550365 | ||
| 46084_TS_DEWT_022010.nc | 20-Nov-2024 15:46 | 1673622 | ||
| 46084_TS_DEWT_022012.nc | 20-Nov-2024 17:18 | 1293122 | ||
| 46084_TS_DEWT_022014.nc | 20-Nov-2024 18:06 | 1664933 | ||
| 46084_TS_DEWT_022015.nc | 20-Nov-2024 18:55 | 5301959 | ||
| 46084_TS_DEWT_022017.nc | 20-Nov-2024 20:23 | 1830807 | ||
| 46084_TS_DEWT_022019.nc | 20-Nov-2024 21:12 | 666169 | ||
| 46084_TS_DEWT_022020.nc | 20-Nov-2024 22:05 | 1824576 | ||
| 46084_TS_DEWT_022021.nc | 20-Nov-2024 23:00 | 5548295 | ||
| 46084_TS_DEWT_022022.nc | 20-Nov-2024 23:46 | 1371486 | ||
| 46084_TS_DEWT_022023.nc | 21-Nov-2024 00:41 | 3863122 | ||
| 46084_TS_DEWT_022025.nc | 01-Mar-2025 08:04 | 3802313 | ||
| 46084_TS_DEWT_032003.nc | 20-Nov-2024 10:57 | 475251 | ||
| 46084_TS_DEWT_032004.nc | 20-Nov-2024 11:40 | 3627879 | ||
| 46084_TS_DEWT_032005.nc | 20-Nov-2024 12:33 | 5582268 | ||
| 46084_TS_DEWT_032006.nc | 20-Nov-2024 13:21 | 429492 | ||
| 46084_TS_DEWT_032007.nc | 20-Nov-2024 14:16 | 428932 | ||
| 46084_TS_DEWT_032008.nc | 20-Nov-2024 15:01 | 451605 | ||
| 46084_TS_DEWT_032010.nc | 20-Nov-2024 15:52 | 452268 | ||
| 46084_TS_DEWT_032012.nc | 20-Nov-2024 17:22 | 450800 | ||
| 46084_TS_DEWT_032014.nc | 20-Nov-2024 18:09 | 451963 | ||
| 46084_TS_DEWT_032015.nc | 20-Nov-2024 18:58 | 450381 | ||
| 46084_TS_DEWT_032017.nc | 20-Nov-2024 20:29 | 451454 | ||
| 46084_TS_DEWT_032019.nc | 20-Nov-2024 21:15 | 451969 | ||
| 46084_TS_DEWT_032020.nc | 20-Nov-2024 22:10 | 451734 | ||
| 46084_TS_DEWT_032021.nc | 20-Nov-2024 23:04 | 433279 | ||
| 46084_TS_DEWT_032022.nc | 20-Nov-2024 23:50 | 448889 | ||
| 46084_TS_DEWT_032023.nc | 21-Nov-2024 00:45 | 442324 | ||
| 46084_TS_DEWT_032025.nc | 02-Apr-2025 06:23 | 450099 | ||
| 46084_TS_DEWT_042003.nc | 20-Nov-2024 11:00 | 449260 | ||
| 46084_TS_DEWT_042004.nc | 20-Nov-2024 11:44 | 448174 | ||
| 46084_TS_DEWT_042005.nc | 20-Nov-2024 12:39 | 449166 | ||
| 46084_TS_DEWT_042006.nc | 20-Nov-2024 13:25 | 448545 | ||
| 46084_TS_DEWT_042007.nc | 20-Nov-2024 14:21 | 3731618 | ||
| 46084_TS_DEWT_042008.nc | 20-Nov-2024 15:05 | 428496 | ||
| 46084_TS_DEWT_042010.nc | 20-Nov-2024 15:57 | 423426 | ||
| 46084_TS_DEWT_042011.nc | 20-Nov-2024 16:35 | 449237 | ||
| 46084_TS_DEWT_042012.nc | 20-Nov-2024 17:26 | 448354 | ||
| 46084_TS_DEWT_042014.nc | 20-Nov-2024 18:12 | 448534 | ||
| 46084_TS_DEWT_042015.nc | 20-Nov-2024 19:02 | 448646 | ||
| 46084_TS_DEWT_042017.nc | 20-Nov-2024 20:34 | 446604 | ||
| 46084_TS_DEWT_042019.nc | 20-Nov-2024 21:18 | 449207 | ||
| 46084_TS_DEWT_042020.nc | 20-Nov-2024 22:14 | 448766 | ||
| 46084_TS_DEWT_042021.nc | 20-Nov-2024 23:08 | 436717 | ||
| 46084_TS_DEWT_042022.nc | 20-Nov-2024 23:54 | 448010 | ||
| 46084_TS_DEWT_042023.nc | 21-Nov-2024 00:49 | 447571 | ||
| 46084_TS_DEWT_042025.nc | 01-May-2025 04:20 | 439771 | ||
| 46084_TS_DEWT_052003.nc | 20-Nov-2024 11:04 | 449134 | ||
| 46084_TS_DEWT_052004.nc | 20-Nov-2024 11:47 | 443442 | ||
| 46084_TS_DEWT_052005.nc | 20-Nov-2024 12:44 | 447926 | ||
| 46084_TS_DEWT_052006.nc | 20-Nov-2024 13:29 | 446405 | ||
| 46084_TS_DEWT_052008.nc | 20-Nov-2024 15:08 | 419890 | ||
| 46084_TS_DEWT_052010.nc | 20-Nov-2024 16:02 | 2940044 | ||
| 46084_TS_DEWT_052011.nc | 20-Nov-2024 16:40 | 429791 | ||
| 46084_TS_DEWT_052012.nc | 20-Nov-2024 17:30 | 429819 | ||
| 46084_TS_DEWT_052014.nc | 20-Nov-2024 18:16 | 450341 | ||
| 46084_TS_DEWT_052015.nc | 20-Nov-2024 19:05 | 452133 | ||
| 46084_TS_DEWT_052017.nc | 20-Nov-2024 20:39 | 451573 | ||
| 46084_TS_DEWT_052019.nc | 20-Nov-2024 21:22 | 448724 | ||
| 46084_TS_DEWT_052020.nc | 20-Nov-2024 22:20 | 449182 | ||
| 46084_TS_DEWT_052021.nc | 20-Nov-2024 23:12 | 448534 | ||
| 46084_TS_DEWT_052022.nc | 20-Nov-2024 23:59 | 452924 | ||
| 46084_TS_DEWT_052023.nc | 21-Nov-2024 00:52 | 429022 | ||
| 46084_TS_DEWT_052025.nc | 01-Jun-2025 04:09 | 450786 | ||
| 46084_TS_DEWT_062003.nc | 20-Nov-2024 11:07 | 451081 | ||
| 46084_TS_DEWT_062004.nc | 20-Nov-2024 11:52 | 445209 | ||
| 46084_TS_DEWT_062005.nc | 20-Nov-2024 12:47 | 449831 | ||
| 46084_TS_DEWT_062006.nc | 20-Nov-2024 13:34 | 441088 | ||
| 46084_TS_DEWT_062008.nc | 20-Nov-2024 15:11 | 451383 | ||
| 46084_TS_DEWT_062010.nc | 20-Nov-2024 16:07 | 444378 | ||
| 46084_TS_DEWT_062011.nc | 20-Nov-2024 16:44 | 2960308 | ||
| 46084_TS_DEWT_062012.nc | 20-Nov-2024 17:34 | 429282 | ||
| 46084_TS_DEWT_062014.nc | 20-Nov-2024 18:21 | 429496 | ||
| 46084_TS_DEWT_062015.nc | 20-Nov-2024 19:09 | 450556 | ||
| 46084_TS_DEWT_062016.nc | 20-Nov-2024 19:42 | 448762 | ||
| 46084_TS_DEWT_062019.nc | 20-Nov-2024 21:28 | 450631 | ||
| 46084_TS_DEWT_062020.nc | 20-Nov-2024 22:24 | 450269 | ||
| 46084_TS_DEWT_062021.nc | 20-Nov-2024 23:16 | 450343 | ||
| 46084_TS_DEWT_062022.nc | 21-Nov-2024 00:03 | 451039 | ||
| 46084_TS_DEWT_062023.nc | 21-Nov-2024 00:55 | 450976 | ||
| 46084_TS_DEWT_062025.nc | 01-Jul-2025 03:37 | 429172 | ||
| 46084_TS_DEWT_072002.nc | 20-Nov-2024 10:23 | 450189 | ||
| 46084_TS_DEWT_072003.nc | 20-Nov-2024 11:10 | 439547 | ||
| 46084_TS_DEWT_072004.nc | 20-Nov-2024 11:57 | 444767 | ||
| 46084_TS_DEWT_072005.nc | 20-Nov-2024 12:51 | 448737 | ||
| 46084_TS_DEWT_072006.nc | 20-Nov-2024 13:39 | 446716 | ||
| 46084_TS_DEWT_072007.nc | 20-Nov-2024 14:26 | 446658 | ||
| 46084_TS_DEWT_072008.nc | 20-Nov-2024 15:15 | 449587 | ||
| 46084_TS_DEWT_072010.nc | 20-Nov-2024 16:12 | 4213208 | ||
| 46084_TS_DEWT_072011.nc | 20-Nov-2024 16:48 | 429816 | ||
| 46084_TS_DEWT_072012.nc | 20-Nov-2024 17:39 | 429782 | ||
| 46084_TS_DEWT_072014.nc | 20-Nov-2024 18:25 | 451573 | ||
| 46084_TS_DEWT_072015.nc | 20-Nov-2024 19:12 | 451550 | ||
| 46084_TS_DEWT_072016.nc | 20-Nov-2024 19:47 | 452114 | ||
| 46084_TS_DEWT_072019.nc | 20-Nov-2024 21:33 | 452239 | ||
| 46084_TS_DEWT_072020.nc | 20-Nov-2024 22:28 | 451541 | ||
| 46084_TS_DEWT_072021.nc | 20-Nov-2024 23:21 | 452110 | ||
| 46084_TS_DEWT_072022.nc | 21-Nov-2024 00:08 | 448988 | ||
| 46084_TS_DEWT_072023.nc | 21-Nov-2024 00:59 | 429816 | ||
| 46084_TS_DEWT_072025.nc | 01-Aug-2025 03:38 | 450931 | ||
| 46084_TS_DEWT_082002.nc | 20-Nov-2024 10:28 | 450824 | ||
| 46084_TS_DEWT_082003.nc | 20-Nov-2024 11:13 | 450108 | ||
| 46084_TS_DEWT_082004.nc | 20-Nov-2024 12:02 | 451264 | ||
| 46084_TS_DEWT_082005.nc | 20-Nov-2024 12:54 | 449302 | ||
| 46084_TS_DEWT_082006.nc | 20-Nov-2024 13:42 | 450512 | ||
| 46084_TS_DEWT_082007.nc | 20-Nov-2024 14:31 | 448319 | ||
| 46084_TS_DEWT_082008.nc | 20-Nov-2024 15:18 | 4000067 | ||
| 46084_TS_DEWT_082010.nc | 20-Nov-2024 16:17 | 429480 | ||
| 46084_TS_DEWT_082011.nc | 20-Nov-2024 16:52 | 429475 | ||
| 46084_TS_DEWT_082012.nc | 20-Nov-2024 17:43 | 451656 | ||
| 46084_TS_DEWT_082013.nc | 20-Nov-2024 17:47 | 449738 | ||
| 46084_TS_DEWT_082014.nc | 20-Nov-2024 18:29 | 449598 | ||
| 46084_TS_DEWT_082015.nc | 20-Nov-2024 19:15 | 449968 | ||
| 46084_TS_DEWT_082016.nc | 20-Nov-2024 19:52 | 449308 | ||
| 46084_TS_DEWT_082018.nc | 20-Nov-2024 20:43 | 451018 | ||
| 46084_TS_DEWT_082019.nc | 20-Nov-2024 21:38 | 448546 | ||
| 46084_TS_DEWT_082020.nc | 20-Nov-2024 22:34 | 429164 | ||
| 46084_TS_DEWT_082021.nc | 20-Nov-2024 23:25 | 447337 | ||
| 46084_TS_DEWT_082022.nc | 21-Nov-2024 00:13 | 449020 | ||
| 46084_TS_DEWT_082023.nc | 21-Nov-2024 01:03 | 449300 | ||
| 46084_TS_DEWT_082025.nc | 01-Sep-2025 03:44 | 447622 | ||
| 46084_TS_DEWT_092002.nc | 20-Nov-2024 10:31 | 447748 | ||
| 46084_TS_DEWT_092003.nc | 20-Nov-2024 11:17 | 449433 | ||
| 46084_TS_DEWT_092004.nc | 20-Nov-2024 12:06 | 446389 | ||
| 46084_TS_DEWT_092005.nc | 20-Nov-2024 12:58 | 429819 | ||
| 46084_TS_DEWT_092006.nc | 20-Nov-2024 13:47 | 429830 | ||
| 46084_TS_DEWT_092007.nc | 20-Nov-2024 14:36 | 451585 | ||
| 46084_TS_DEWT_092008.nc | 20-Nov-2024 15:21 | 448737 | ||
| 46084_TS_DEWT_092010.nc | 20-Nov-2024 16:21 | 450933 | ||
| 46084_TS_DEWT_092011.nc | 20-Nov-2024 16:57 | 450755 | ||
| 46084_TS_DEWT_092013.nc | 20-Nov-2024 17:50 | 449350 | ||
| 46084_TS_DEWT_092014.nc | 20-Nov-2024 18:33 | 449832 | ||
| 46084_TS_DEWT_092015.nc | 20-Nov-2024 19:17 | 450067 | ||
| 46084_TS_DEWT_092016.nc | 20-Nov-2024 19:57 | 429807 | ||
| 46084_TS_DEWT_092018.nc | 20-Nov-2024 20:47 | 449405 | ||
| 46084_TS_DEWT_092019.nc | 20-Nov-2024 21:43 | 449264 | ||
| 46084_TS_DEWT_092020.nc | 20-Nov-2024 22:38 | 449658 | ||
| 46084_TS_DEWT_092021.nc | 20-Nov-2024 23:29 | 444484 | ||
| 46084_TS_DEWT_092022.nc | 21-Nov-2024 00:17 | 446525 | ||
| 46084_TS_DEWT_092023.nc | 21-Nov-2024 01:06 | 450064 | ||
| 46084_TS_DEWT_092025.nc | 29-Sep-2025 03:12 | 450133 | ||
| 46084_TS_DEWT_102002.nc | 20-Nov-2024 10:36 | 429486 | ||
| 46084_TS_DEWT_102003.nc | 20-Nov-2024 11:21 | 435591 | ||
| 46084_TS_DEWT_102004.nc | 20-Nov-2024 12:11 | 451193 | ||
| 46084_TS_DEWT_102005.nc | 20-Nov-2024 13:02 | 449024 | ||
| 46084_TS_DEWT_102006.nc | 20-Nov-2024 13:51 | 449193 | ||
| 46084_TS_DEWT_102007.nc | 20-Nov-2024 14:41 | 450380 | ||
| 46084_TS_DEWT_102008.nc | 20-Nov-2024 15:25 | 449939 | ||
| 46084_TS_DEWT_102010.nc | 20-Nov-2024 16:25 | 450213 | ||
| 46084_TS_DEWT_102011.nc | 20-Nov-2024 17:03 | 441897 | ||
| 46084_TS_DEWT_102013.nc | 20-Nov-2024 17:54 | 429837 | ||
| 46084_TS_DEWT_102014.nc | 20-Nov-2024 18:38 | 449223 | ||
| 46084_TS_DEWT_102015.nc | 20-Nov-2024 19:22 | 448924 | ||
| 46084_TS_DEWT_102016.nc | 20-Nov-2024 20:02 | 450653 | ||
| 46084_TS_DEWT_102018.nc | 20-Nov-2024 20:52 | 435517 | ||
| 46084_TS_DEWT_102019.nc | 20-Nov-2024 21:47 | 450528 | ||
| 46084_TS_DEWT_102020.nc | 20-Nov-2024 22:43 | 450317 | ||
| 46084_TS_DEWT_102021.nc | 20-Nov-2024 23:33 | 449462 | ||
| 46084_TS_DEWT_102022.nc | 21-Nov-2024 00:22 | 429495 | ||
| 46084_TS_DEWT_102023.nc | 21-Nov-2024 01:10 | 448867 | ||
| 46084_TS_DEWT_112002.nc | 20-Nov-2024 10:41 | 449206 | ||
| 46084_TS_DEWT_112003.nc | 20-Nov-2024 11:24 | 448205 | ||
| 46084_TS_DEWT_112004.nc | 20-Nov-2024 12:15 | 449954 | ||
| 46084_TS_DEWT_112005.nc | 20-Nov-2024 13:05 | 450288 | ||
| 46084_TS_DEWT_112006.nc | 20-Nov-2024 13:56 | 450772 | ||
| 46084_TS_DEWT_112007.nc | 20-Nov-2024 14:44 | 448585 | ||
| 46084_TS_DEWT_112008.nc | 20-Nov-2024 15:29 | 429476 | ||
| 46084_TS_DEWT_112010.nc | 20-Nov-2024 16:30 | 429490 | ||
| 46084_TS_DEWT_112011.nc | 20-Nov-2024 17:07 | 449760 | ||
| 46084_TS_DEWT_112013.nc | 20-Nov-2024 17:57 | 449862 | ||
| 46084_TS_DEWT_112014.nc | 20-Nov-2024 18:43 | 448378 | ||
| 46084_TS_DEWT_112015.nc | 20-Nov-2024 19:27 | 431973 | ||
| 46084_TS_DEWT_112016.nc | 20-Nov-2024 20:07 | 449868 | ||
| 46084_TS_DEWT_112018.nc | 20-Nov-2024 20:57 | 447020 | ||
| 46084_TS_DEWT_112019.nc | 20-Nov-2024 21:51 | 449069 | ||
| 46084_TS_DEWT_112020.nc | 20-Nov-2024 22:47 | 425469 | ||
| 46084_TS_DEWT_112021.nc | 20-Nov-2024 23:36 | 429550 | ||
| 46084_TS_DEWT_112022.nc | 21-Nov-2024 00:27 | 451948 | ||
| 46084_TS_DEWT_112023.nc | 21-Nov-2024 01:14 | 450876 | ||
| 46084_TS_DEWT_112024.nc | 17-Jan-2025 13:36 | 450576 | ||
| 46084_TS_DEWT_122002.nc | 20-Nov-2024 10:46 | 450802 | ||
| 46084_TS_DEWT_122003.nc | 20-Nov-2024 11:27 | 451499 | ||
| 46084_TS_DEWT_122004.nc | 20-Nov-2024 12:19 | 451024 | ||
| 46084_TS_DEWT_122005.nc | 20-Nov-2024 13:09 | 451413 | ||
| 46084_TS_DEWT_122006.nc | 20-Nov-2024 14:01 | 432758 | ||
| 46084_TS_DEWT_122007.nc | 20-Nov-2024 14:49 | 429702 | ||
| 46084_TS_DEWT_122008.nc | 20-Nov-2024 15:33 | 450791 | ||
| 46084_TS_DEWT_122009.nc | 20-Nov-2024 15:37 | 450934 | ||
| 46084_TS_DEWT_122011.nc | 20-Nov-2024 17:11 | 443613 | ||
| 46084_TS_DEWT_122013.nc | 20-Nov-2024 17:59 | 432051 | ||
| 46084_TS_DEWT_122014.nc | 20-Nov-2024 18:47 | 451072 | ||
| 46084_TS_DEWT_122015.nc | 20-Nov-2024 19:32 | 450949 | ||
| 46084_TS_DEWT_122016.nc | 20-Nov-2024 20:12 | 443082 | ||
| 46084_TS_DEWT_122018.nc | 20-Nov-2024 21:02 | 492443 | ||
| 46084_TS_DEWT_122019.nc | 20-Nov-2024 21:55 | 428469 | ||
| 46084_TS_DEWT_122020.nc | 20-Nov-2024 22:52 | 429451 | ||
| 46084_TS_DEWT_122021.nc | 20-Nov-2024 23:39 | 451904 | ||
| 46084_TS_DEWT_122022.nc | 21-Nov-2024 00:31 | 450799 | ||
| 46084_TS_DEWT_122023.nc | 21-Nov-2024 01:19 | 450529 | ||
| 46084_TS_DEWT_122024.nc | 22-Jan-2025 15:46 | 449467 | ||